Weather History for Detroit Metro, MI

Change the Weather History Date:

Wednesday, November 16, 2011

  Actual Average Record
Temperature  
Mean Temperature 43 °F 42 °F  
Max Temperature 50 °F 49 °F 69 °F (1953)
Min Temperature 35 °F 34 °F 8 °F (1933)
Degree Days  
Heating Degree Days 22 24  
Month to date heating degree days 241 331  
Since 1 July heating degree days 673 842  
Cooling Degree Days 0 0  
Month to date cooling degree days 0 0  
Year to date cooling degree days 1060 803  
Moisture  
Dew Point 33 °F    
Average Humidity 64    
Maximum Humidity 93    
Minimum Humidity 34    
Precipitation  
Precipitation 0.00 in 0.10 in 1.50 in (1961)
Month to date precipitation 0.97 1.48  
Year to date precipitation 39.88 29.70  
Snow  
Snow 0.00 in 0.00 in 7.20 in (1932)
Month to date snowfall T 0.4  
Since 1 July snowfall T 0.5  
Since 1 September snowfall T 0.5  
Snow Depth 0.00 in    
Sea Level Pressure  
Sea Level Pressure 29.90 in    
Wind  
Wind Speed 11 mph (WSW)    
Max Wind Speed 20 mph    
Max Gust Speed 25 mph    
Visibility 8 miles    
Events      
T = Trace of Precipitation, MM = Missing Value Source: NWS Daily Summary

Daily Weather History Graph

Daily Weather History Graph

Search for Another Location

Airport:

Trip Planner

Search our weather history database for the weather conditions in past years. The results will help you decide how hot, cold, wet, or windy it might be!

Date:

Astronomy

Nov. 16, 2011 Rise Set
Actual Time 7:24 AM EST 5:10 PM EST
Civil Twilight 6:54 AM EST 5:41 PM EST
Nautical Twilight 6:20 AM EST 6:15 PM EST
Astronomical Twilight 5:47 AM EST 6:48 PM EST
Moon 10:24 PM EST (11/16) 11:59 AM EST (11/16)
Length of Visible Light 10h 46m
Length of Day
9h 46m
Waning Gibbous, 70% of the Moon is Illuminated
Nov 16
Waning Gibbous
Nov 18
Last Quarter
Nov 25
New
Dec 2
First Quarter
Dec 10
Full

Hourly Weather History & Observations

Time (EST) Temp. Windchill Dew Point Humidity Pressure Visibility Wind Dir Wind Speed Gust Speed Precip Events Conditions
12:53 AM 45.0 °F 41.8 °F 42.1 °F 90% 29.81 in 6.0 mi South 5.8 mph - N/A   Scattered Clouds
1:53 AM 46.0 °F 42.5 °F 43.0 °F 89% 29.80 in 8.0 mi South 6.9 mph - N/A   Mostly Cloudy
2:00 AM 44.6 °F 41.4 °F 42.8 °F 93% 29.79 in 8.0 mi South 5.8 mph - N/A   Mostly Cloudy
2:08 AM 44.6 °F 40.7 °F 42.8 °F 93% 29.79 in 7.0 mi South 6.9 mph - N/A   Partly Cloudy
2:49 AM 46.4 °F 42.9 °F 44.6 °F 93% 29.80 in 4.0 mi South 6.9 mph - N/A   Overcast
2:53 AM 46.0 °F 43.9 °F 44.1 °F 93% 29.80 in 4.0 mi SSW 4.6 mph - N/A   Overcast
3:53 AM 48.9 °F - 45.0 °F 86% 29.80 in 4.0 mi South 6.9 mph - N/A   Overcast
4:41 AM 46.4 °F 43.5 °F 44.6 °F 93% 29.80 in 3.0 mi SW 5.8 mph - N/A   Mostly Cloudy
4:53 AM 48.0 °F - 45.0 °F 89% 29.80 in 3.0 mi WSW 5.8 mph - N/A   Mostly Cloudy
5:53 AM 48.0 °F - 44.1 °F 86% 29.82 in 4.0 mi West 5.8 mph - N/A   Mostly Cloudy
6:53 AM 46.9 °F - 43.0 °F 86% 29.84 in 5.0 mi West 5.8 mph - N/A   Overcast
7:53 AM 46.0 °F 40.6 °F 37.9 °F 73% 29.87 in 8.0 mi WNW 11.5 mph - N/A   Overcast
8:53 AM 46.0 °F 41.9 °F 37.9 °F 73% 29.88 in 10.0 mi WNW 8.1 mph - N/A   Overcast
9:53 AM 45.0 °F 38.9 °F 33.1 °F 63% 29.90 in 10.0 mi WNW 12.7 mph - N/A   Overcast
10:53 AM 46.0 °F 39.9 °F 30.9 °F 56% 29.92 in 10.0 mi West 13.8 mph - N/A   Overcast
11:53 AM 46.9 °F - 27.0 °F 46% 29.91 in 10.0 mi West 15.0 mph 19.6 mph N/A   Mostly Cloudy
12:53 PM 48.9 °F - 25.0 °F 39% 29.90 in 10.0 mi West 12.7 mph - N/A   Mostly Cloudy
1:53 PM 48.9 °F - 21.9 °F 35% 29.90 in 10.0 mi West 13.8 mph 19.6 mph N/A   Overcast
2:53 PM 48.9 °F - 21.0 °F 33% 29.92 in 10.0 mi West 13.8 mph - N/A   Mostly Cloudy
3:53 PM 46.4 °F 40.7 °F 23.0 °F 40% 29.92 in 10.0 mi WNW 12.7 mph - N/A   Scattered Clouds
4:53 PM 45.0 °F 38.2 °F 19.9 °F 37% 29.96 in 10.0 mi West 15.0 mph - N/A   Scattered Clouds
5:53 PM 42.1 °F 34.5 °F 21.9 °F 45% 29.99 in 10.0 mi West 15.0 mph - N/A   Scattered Clouds
6:53 PM 39.0 °F 30.3 °F 23.0 °F 53% 30.03 in 10.0 mi West 16.1 mph 24.2 mph N/A   Mostly Cloudy
7:53 PM 37.9 °F 29.6 °F 23.0 °F 55% 30.06 in 10.0 mi West 13.8 mph - N/A   Mostly Cloudy
8:53 PM 37.0 °F 27.4 °F 21.9 °F 54% 30.06 in 10.0 mi West 17.3 mph 23.0 mph N/A   Overcast
9:53 PM 36.0 °F 29.0 °F 21.0 °F 55% 30.07 in 10.0 mi WNW 9.2 mph - N/A   Mostly Cloudy
10:53 PM 36.0 °F 30.3 °F 21.9 °F 57% 30.06 in 10.0 mi West 6.9 mph - N/A   Mostly Cloudy
11:53 PM 35.1 °F 31.0 °F 21.9 °F 59% 30.07 in 10.0 mi WSW 4.6 mph - N/A   Mostly Cloudy